FW7079 Weather Reports


Display with metric or nautical units.
time (UTC)temp
F
wind
direction
speed
MPH
gust
MPH
rain 1hr
in
rain 24hr
in
rain mn
in
humidity
%
barometer
mb
20260507231555 74 136 1.0 3.0 0.00 0.00 0.00 37 1013.7
20260507230059 74 132 1.0 3.0 0.00 0.00 0.00 36 1013.8
20260507224613 74 131 0.0 2.0 0.00 0.00 0.00 34 1014.0
20260507223059 74 50 0.0 2.0 0.00 0.00 0.00 35 1014.0
20260507221554 75 0 0.0 3.0 0.00 0.00 0.00 36 1014.1
20260507220105 75 142 1.0 5.0 0.00 0.00 0.00 36 1014.3
20260507214604 75 109 1.0 5.0 0.00 0.00 0.00 35 1014.3
20260507213101 75 0 0.0 4.0 0.00 0.00 0.00 37 1014.5
20260507211618 75 0 1.0 3.0 0.00 0.00 0.00 35 1014.7
20260507210057 74 223 1.0 3.0 0.00 0.00 0.00 36 1014.9
20260507204605 74 136 0.0 5.0 0.00 0.00 0.00 35 1015.2
20260507203101 75 288 1.0 5.0 0.00 0.00 0.00 35 1015.5
20260507201612 75 105 1.0 3.0 0.00 0.00 0.00 35 1015.8
20260507194558 74 0.0 0.0 0.00 0.00 0.00 40 1016.3
20260507193053 74 0.0 0.0 0.00 0.00 0.00 38 1016.5
20260507191556 73 0.0 0.0 0.00 0.00 0.00 42 1016.7
20260507190053 72 0.0 0.0 0.00 0.00 0.00 42 1017.1
20260507184550 73 56 1.0 7.0 0.00 0.00 0.00 43 1017.3
20260507183053 72 298 1.0 5.0 0.00 0.00 0.00 41 1017.5
20260507181551 72 192 2.0 6.0 0.00 0.00 0.00 42 1017.9
20260507180051 71 251 0.0 0.0 0.00 0.00 0.00 44 1018.1
20260507174553 71 0.0 0.0 0.00 0.00 0.00 43 1018.4
20260507173101 70 0.0 0.0 0.00 0.00 0.00 43 1018.5
20260507171558 69 0.0 0.0 0.00 0.00 0.00 46 1018.8
20260507170052 69 142 0.0 8.0 0.00 0.00 0.00 46 1018.9
20260507164554 67 0.0 0.0 0.00 0.00 0.00 48 1019.3
20260507163049 67 120 1.0 7.0 0.00 0.00 0.00 48 1019.4
20260507161603 66 111 2.0 7.0 0.00 0.00 0.00 49 1019.6
20260507160100 66 153 1.0 5.0 0.00 0.00 0.00 51 1019.6
20260507154555 65 131 1.0 7.0 0.00 0.00 0.00 53 1019.6
20260507153058 63 59 2.0 7.0 0.00 0.00 0.00 52 1019.8
20260507151555 62 60 0.0 4.0 0.00 0.00 0.00 60 1019.9
20260507150055 60 94 1.0 4.0 0.00 0.00 0.00 61 1020.1
20260507144556 58 142 1.0 3.0 0.00 0.00 0.00 64 1020.3
20260507143105 56 0 0.0 2.0 0.00 0.00 0.00 72 1020.4
20260507141556 54 0 0.0 1.0 0.00 0.00 0.00 78 1020.6
20260507140108 51 0 0.0 1.0 0.00 0.00 0.00 87 1020.7
20260507134556 49 0 0.0 1.0 0.00 0.00 0.00 92 1020.8
20260507133054 47 0 0.0 1.0 0.00 0.00 0.00 93 1020.7
20260507131559 45 0 0.0 1.0 0.00 0.00 0.00 94 1020.7
20260507130055 44 0 0.0 0.0 0.00 0.00 0.00 93 1020.7
20260507124559 42 0 0.0 0.0 0.00 0.00 0.00 93 1020.6
20260507123058 40 0 0.0 0.0 0.00 0.00 0.00 93 1020.3
20260507121555 39 0 0.0 0.0 0.00 0.00 0.00 92 1020.1
20260507120053 39 0 0.0 0.0 0.00 0.00 0.00 91 1020.0
20260507114554 39 0 0.0 0.0 0.00 0.00 0.00 91 1020.0
20260507113054 40 0 0.0 0.0 0.00 0.00 0.00 91 1019.9
20260507111553 40 0 0.0 0.0 0.00 0.00 0.00 91 1020.0
20260507110059 40 0 0.0 0.0 0.00 0.00 0.00 91 1019.9
20260507104553 40 0 0.0 0.0 0.00 0.00 0.00 91 1019.9
20260507103055 40 0 0.0 0.0 0.00 0.00 0.00 91 1019.7
20260507101604 40 0 0.0 0.0 0.00 0.00 0.00 91 1019.9
20260507100053 40 0 0.0 0.0 0.00 0.00 0.00 91 1019.6
20260507094603 40 0 0.0 0.0 0.00 0.00 0.00 91 1019.5
20260507093056 39 0 0.0 0.0 0.00 0.00 0.00 91 1019.6
20260507091603 39 0 0.0 0.0 0.00 0.00 0.00 90 1019.8
20260507090110 39 0 0.0 0.0 0.00 0.00 0.00 90 1019.3
20260507084559 40 0 0.0 0.0 0.00 0.00 0.00 89 1019.8
20260507083102 40 0 0.0 0.0 0.00 0.00 0.00 90 1019.5
20260507081558 40 0 0.0 0.0 0.00 0.00 0.00 89 1019.8
20260507080057 41 0 0.0 0.0 0.00 0.00 0.00 89 1019.6
20260507074558 41 0 0.0 0.0 0.00 0.00 0.00 90 1019.7
20260507073103 41 0 0.0 0.0 0.00 0.00 0.00 89 1019.9
20260507071556 41 0 0.0 0.0 0.00 0.00 0.00 88 1019.8
20260507070135 42 0 0.0 0.0 0.00 0.00 0.00 88 1019.6
20260507064553 42 0 0.0 0.0 0.00 0.00 0.00 88 1019.6
20260507063100 42 0 0.0 1.0 0.00 0.00 0.00 87 1019.3
20260507061549 43 0 0.0 0.0 0.00 0.00 0.00 87 1020.2
20260507060053 43 0 0.0 0.0 0.00 0.00 0.00 87 1020.4
20260507054554 43 0 0.0 0.0 0.00 0.00 0.00 86 1020.3
20260507053055 44 0 0.0 0.0 0.00 0.00 0.00 86 1020.2
20260507051555 44 0 0.0 0.0 0.00 0.00 0.00 85 1020.0
20260507044603 45 0 0.0 0.0 0.00 0.00 0.00 84 1019.7
20260507043104 46 0 0.0 0.0 0.00 0.00 0.00 84 1019.1
20260507041554 46 0 0.0 0.0 0.00 0.00 0.00 82 1019.2
20260507040052 47 0 0.0 0.0 0.00 0.00 0.00 81 1019.1
20260507034554 48 0 0.0 0.0 0.00 0.00 0.00 78 1019.4
20260507033059 49 0 0.0 0.0 0.00 0.00 0.00 78 1019.2
20260507031555 50 0 0.0 0.0 0.00 0.00 0.00 76 1018.9
20260507030105 51 0 0.0 0.0 0.00 0.00 0.00 73 1018.8
20260507024600 52 0 0.0 0.0 0.00 0.00 0.00 70 1018.6
20260507023052 54 0 0.0 0.0 0.00 0.00 0.00 67 1018.4
20260507021613 56 0 0.0 0.0 0.00 0.00 0.00 63 1018.0
20260507020106 57 0 0.0 1.0 0.00 0.00 0.00 60 1018.0
20260507014612 58 0 0.0 1.0 0.00 0.00 0.00 60 1017.8
20260507013056 59 0 0.0 1.0 0.00 0.00 0.00 60 1017.7
20260507011554 59 0 0.0 3.0 0.00 0.00 0.00 58 1017.7
20260507010111 60 0 0.0 1.0 0.00 0.00 0.00 58 1017.6
20260507004557 60 0 0.0 1.0 0.00 0.00 0.00 59 1017.5
20260507003051 61 0 0.0 3.0 0.00 0.00 0.00 59 1017.3
20260507001602 61 0 0.0 1.0 0.00 0.00 0.00 59 1017.2
20260507000051 61 0 0.0 2.0 0.00 0.00 0.00 57 1017.0
20260506234555 62 209 0.0 3.0 0.00 0.00 0.00 54 1016.8
20260506233055 63 43 0.0 2.0 0.00 0.00 0.00 55 1016.6